• In Austria
  • List of Countries
  • For 7 days
  • Water Temperature
  • Satellite Maps
  • Weather Map
  • News
  • Weather Widgets
  • user-avatar
    Login

    Hourly Weather Mzuzu

    Today, 16 October, Tuesday

    Time Temperature Precipitation Wind Pressure Humidity
    00:00 +27°C° 0 mm 2 mps 697 mmHg 48%
    01:00 +26°C° 0 mm 2 mps 697 mmHg 50%
    02:00 +26°C° 0 mm 2 mps 697 mmHg 51%
    03:00 +25°C° 0 mm 2 mps 697 mmHg 53%
    04:00 +25°C° 0 mm 2 mps 697 mmHg 55%
    05:00 +25°C° 0 mm 2 mps 697 mmHg 57%
    06:00 +26°C° 0 mm 2 mps 698 mmHg 54%
    07:00 +28°C° 0 mm 2 mps 698 mmHg 51%
    08:00 +30°C° 0 mm 3 mps 699 mmHg 48%
    09:00 +33°C° 0 mm 3 mps 699 mmHg 42%
    10:00 +35°C° 0 mm 3 mps 699 mmHg 35%
    11:00 +37°C° 0 mm 3 mps 699 mmHg 29%
    12:00 +37°C° 0 mm 2 mps 698 mmHg 27%
    13:00 +38°C° 0 mm 2 mps 698 mmHg 26%
    14:00 +39°C° 0 mm 1 mps 697 mmHg 24%
    15:00 +36°C° 0 mm 1 mps 697 mmHg 27%
    16:00 +35°C° 0 mm 1 mps 696 mmHg 31%
    17:00 +31°C° 0 mm 0 mps 696 mmHg 34%
    18:00 +32°C° 0 mm 1 mps 696 mmHg 35%
    19:00 +31°C° 0 mm 1 mps 696 mmHg 36%
    20:00 +30°C° 0 mm 1 mps 696 mmHg 38%
    21:00 +29°C° 0 mm 1 mps 697 mmHg 40%
    22:00 +29°C° 0 mm 2 mps 697 mmHg 43%
    23:00 +28°C° 0 mm 2 mps 697 mmHg 46%

    Tomorrow, 17 October, Wednesday

    Time Temperature Precipitation Wind Pressure Humidity
    00:00 +28°C° 0 mm 2 mps 697 mmHg 48%
    01:00 +27°C° 0 mm 2 mps 696 mmHg 50%
    02:00 +27°C° 0 mm 1 mps 696 mmHg 52%
    03:00 +27°C° 0 mm 1 mps 696 mmHg 53%
    04:00 +27°C° 0 mm 1 mps 696 mmHg 54%
    05:00 +26°C° 0 mm 1 mps 696 mmHg 55%
    06:00 +28°C° 0 mm 2 mps 697 mmHg 53%
    07:00 +29°C° 0 mm 2 mps 697 mmHg 50%
    08:00 +30°C° 0 mm 2 mps 698 mmHg 47%
    09:00 +32°C° 0 mm 2 mps 698 mmHg 42%
    10:00 +35°C° 0 mm 2 mps 698 mmHg 37%
    11:00 +37°C° 0 mm 2 mps 698 mmHg 32%
    12:00 +37°C° 0 mm 2 mps 697 mmHg 31%
    13:00 +38°C° 0 mm 2 mps 696 mmHg 29%
    14:00 +37°C° 0 mm 1 mps 695 mmHg 28%
    15:00 +36°C° 0 mm 1 mps 695 mmHg 31%
    16:00 +34°C° 0 mm 1 mps 695 mmHg 34%
    17:00 +33°C° 0 mm 1 mps 695 mmHg 37%
    18:00 +32°C° 0 mm 1 mps 695 mmHg 38%
    19:00 +31°C° 0 mm 1 mps 695 mmHg 39%
    20:00 +30°C° 0 mm 1 mps 696 mmHg 40%
    21:00 +30°C° 0 mm 1 mps 696 mmHg 42%
    22:00 +29°C° 0 mm 1 mps 696 mmHg 43%
    23:00 +28°C° 0 mm 1 mps 696 mmHg 45%

    Day after tomorrow, 18 October, Thursday

    Time Temperature Precipitation Wind Pressure Humidity
    00:00 +28°C° 0 mm 1 mps 696 mmHg 46%
    01:00 +28°C° 0 mm 2 mps 695 mmHg 48%
    02:00 +27°C° 0 mm 2 mps 695 mmHg 49%
    03:00 +27°C° 0 mm 2 mps 695 mmHg 51%
    04:00 +26°C° 0 mm 2 mps 695 mmHg 52%
    05:00 +26°C° 0 mm 2 mps 695 mmHg 54%
    06:00 +28°C° 0 mm 2 mps 696 mmHg 51%
    07:00 +29°C° 0 mm 2 mps 697 mmHg 48%
    08:00 +31°C° 0 mm 2 mps 697 mmHg 45%
    09:00 +34°C° 0 mm 3 mps 697 mmHg 40%
    10:00 +36°C° 0 mm 3 mps 697 mmHg 36%
    11:00 +37°C° 0 mm 3 mps 697 mmHg 31%
    12:00 +37°C° 0 mm 3 mps 696 mmHg 32%
    13:00 +36°C° 0 mm 2 mps 695 mmHg 34%
    14:00 +35°C° 0 mm 2 mps 694 mmHg 35%
    15:00 +34°C° 0 mm 2 mps 694 mmHg 37%
    16:00 +32°C° 0 mm 2 mps 694 mmHg 39%
    17:00 +32°C° 0 mm 1 mps 694 mmHg 41%
    18:00 +30°C° 0 mm 2 mps 695 mmHg 46%
    19:00 +29°C° 0 mm 2 mps 695 mmHg 50%
    20:00 +28°C° 0 mm 3 mps 696 mmHg 55%
    21:00 +28°C° 0 mm 2 mps 696 mmHg 57%
    22:00 +27°C° 0 mm 2 mps 696 mmHg 60%
    23:00 +27°C° 0 mm 2 mps 696 mmHg 62%

    19 October, Friday

    Time Temperature Precipitation Wind Pressure Humidity
    00:00 +27°C° 0 mm 2 mps 696 mmHg 62%
    01:00 +26°C° 0 mm 2 mps 695 mmHg 63%
    02:00 +26°C° 0 mm 2 mps 695 mmHg 63%
    03:00 +26°C° 0 mm 2 mps 695 mmHg 64%
    04:00 +26°C° 0 mm 2 mps 696 mmHg 64%
    05:00 +25°C° 0 mm 2 mps 696 mmHg 65%
    06:00 +26°C° 0 mm 3 mps 697 mmHg 62%
    07:00 +27°C° 0 mm 3 mps 697 mmHg 59%
    08:00 +28°C° 0 mm 3 mps 698 mmHg 56%
    09:00 +30°C° 0 mm 3 mps 698 mmHg 51%
    10:00 +31°C° 0 mm 3 mps 698 mmHg 47%
    11:00 +33°C° 0 mm 3 mps 698 mmHg 43%
    12:00 +34°C° 0 mm 3 mps 697 mmHg 40%
    13:00 +35°C° 0 mm 2 mps 697 mmHg 37%
    14:00 +36°C° 0 mm 2 mps 696 mmHg 34%
    15:00 +35°C° 0 mm 2 mps 696 mmHg 37%
    16:00 +34°C° 0 mm 2 mps 696 mmHg 40%
    17:00 +31°C° 0 mm 1 mps 696 mmHg 43%
    18:00 +30°C° 0.2 mm 1 mps 696 mmHg 47%
    19:00 +29°C° 0.2 mm 1 mps 697 mmHg 50%
    20:00 +28°C° 0.2 mm 2 mps 697 mmHg 54%
    21:00 +28°C° 0 mm 2 mps 697 mmHg 55%
    22:00 +27°C° 0 mm 2 mps 697 mmHg 56%
    23:00 +27°C° 0 mm 2 mps 697 mmHg 57%

    20 October, Saturday

    Time Temperature Precipitation Wind Pressure Humidity
    00:00 +27°C° 0.2 mm 2 mps 697 mmHg 58%
    01:00 +26°C° 0.2 mm 2 mps 696 mmHg 60%
    02:00 +26°C° 0.2 mm 2 mps 696 mmHg 61%
    03:00 +26°C° 0.1 mm 2 mps 696 mmHg 62%
    04:00 +25°C° 0.1 mm 2 mps 697 mmHg 62%
    05:00 +25°C° 0.1 mm 2 mps 697 mmHg 62%
    06:00 +26°C° 0 mm 2 mps 698 mmHg 59%
    07:00 +27°C° 0 mm 3 mps 698 mmHg 56%
    08:00 +29°C° 0 mm 3 mps 699 mmHg 52%
    09:00 +30°C° 0 mm 3 mps 699 mmHg 48%
    10:00 +32°C° 0 mm 2 mps 699 mmHg 43%
    11:00 +34°C° 0 mm 2 mps 699 mmHg 38%
    12:00 +35°C° 0 mm 2 mps 698 mmHg 37%
    13:00 +35°C° 0 mm 2 mps 698 mmHg 35%
    14:00 +36°C° 0 mm 2 mps 697 mmHg 33%
    15:00 +35°C° 0 mm 2 mps 697 mmHg 37%
    16:00 +34°C° 0 mm 2 mps 697 mmHg 40%
    17:00 +31°C° 0 mm 2 mps 697 mmHg 44%
    18:00 +30°C° 0 mm 2 mps 697 mmHg 49%
    19:00 +29°C° 0 mm 2 mps 697 mmHg 53%
    20:00 +27°C° 0 mm 2 mps 697 mmHg 58%
    21:00 +26°C° 0.7 mm 2 mps 697 mmHg 63%
    22:00 +25°C° 0.7 mm 2 mps 697 mmHg 68%
    23:00 +25°C° 0.7 mm 2 mps 697 mmHg 73%

    21 October, Sunday

    Time Temperature Precipitation Wind Pressure Humidity
    00:00 +24°C° 1.2 mm 2 mps 697 mmHg 75%
    01:00 +24°C° 1.2 mm 2 mps 696 mmHg 77%
    02:00 +24°C° 1.2 mm 2 mps 696 mmHg 79%
    03:00 +24°C° 0 mm 2 mps 696 mmHg 79%
    04:00 +24°C° 0 mm 2 mps 697 mmHg 79%
    05:00 +24°C° 0 mm 2 mps 697 mmHg 78%
    06:00 +25°C° 0 mm 2 mps 698 mmHg 73%
    07:00 +27°C° 0 mm 2 mps 698 mmHg 68%
    08:00 +28°C° 0 mm 3 mps 699 mmHg 63%
    09:00 +30°C° 0 mm 3 mps 699 mmHg 54%
    10:00 +33°C° 0 mm 3 mps 699 mmHg 46%
    11:00 +35°C° 0 mm 3 mps 698 mmHg 38%
    12:00 +36°C° 0 mm 3 mps 698 mmHg 37%
    13:00 +36°C° 0 mm 2 mps 697 mmHg 36%
    14:00 +36°C° 0 mm 2 mps 696 mmHg 34%
    15:00 +35°C° 0 mm 2 mps 696 mmHg 38%
    16:00 +32°C° 0 mm 2 mps 696 mmHg 42%
    17:00 +31°C° 0 mm 2 mps 696 mmHg 46%
    18:00 +30°C° 0 mm 2 mps 697 mmHg 49%
    19:00 +29°C° 0 mm 1 mps 697 mmHg 52%
    20:00 +28°C° 0 mm 1 mps 697 mmHg 56%
    21:00 +28°C° 0 mm 1 mps 697 mmHg 58%
    22:00 +27°C° 0 mm 1 mps 697 mmHg 60%
    23:00 +27°C° 0 mm 1 mps 697 mmHg 62%
    Show more